Flag for U.S.A. Weather past 2 weeks in Aurora, Colorado, U.S.A.

Now
37 °F

Light rain. Mostly cloudy.


Feels Like: 30 °F
Forecast: 24 / 38 °F
Wind: 9 mph from Northwest

Location: Buckley Air Force Base

Current Time: Dec 21, 2014 at 10:48:28 PM

Latest Report: Dec 21, 2014 at 9:58 PM


Visibility: 10 mi

Pressure: 29.61 "Hg

Humidity: 99%

Dew point: 36 °F

Location of AuroraLocation

Historic Weather in Aurora — Graph

°F

Aurora temperature yesterday

Maximum temperature yesterday: 49 °F (at 2:58 PM)
Minimum temperature yesterday: 29 °F (at 11:58 PM)
Average temperature yesterday: 36 °F

Past Weeks' High & Low Weather Summary

 TemperatureHumidityPressure
High66 °F (Dec 12, 2:58 PM)100% (Dec 14, 10:58 AM)30.39 "Hg (Dec 14, 10:58 AM)
Low19 °F (Dec 15, 11:58 PM)9% (Dec 10, 12:58 PM)29.52 "Hg (Dec 21, 1:58 PM)
Average36 °F57%30.03 "Hg
* Reported Dec 6 9:58 PM — Dec 21 9:58 PM, Aurora, Weather by CustomWeather, © 2014

Note: Actual official high and low records may vary slightly from our data, if they occured in-between our weather recording intervals... More about our weather records

Advertising

Aurora weather history for previous 24 hours

 ConditionsComfort  
Time TempWeatherWind HumidityBarometerVisibility
9:58 PM
Dec 21
37 °FLight rain. Mostly cloudy.9 mph99%29.61 "Hg10 mi
9:01 PM41 °FLight rain. Partly cloudy.8 mph76%29.65 "Hg10 mi
7:58 PM45 °FPassing clouds.18 mph57%29.57 "Hg10 mi
6:58 PM44 °FPartly cloudy.12 mph53%29.54 "Hg10 mi
5:58 PM44 °FPartly cloudy.17 mph49%29.54 "Hg10 mi
4:58 PM46 °FPartly cloudy.10 mph45%29.54 "Hg10 mi
3:58 PM46 °FPartly sunny.14 mph43%29.54 "Hg10 mi
2:58 PM48 °FPartly sunny.25 mph41%29.52 "Hg10 mi
1:58 PM48 °FPartly sunny.15 mph37%29.52 "Hg10 mi
12:58 PM50 °FPartly sunny.6 mph31%29.54 "Hg10 mi
11:58 AM45 °FPartly sunny.5 mph36%29.58 "Hg10 mi
10:58 AM47 °FBroken clouds.7 mph33%29.59 "Hg10 mi
9:58 AM44 °FPartly sunny.8 mph35%29.64 "Hg10 mi
8:58 AM43 °FBroken clouds.10 mph39%29.63 "Hg10 mi
7:58 AM35 °FBroken clouds.12 mph50%29.67 "Hg10 mi
6:58 AM33 °FPartly cloudy.10 mph57%29.75 "Hg10 mi
5:58 AM31 °FPassing clouds.10 mph60%29.77 "Hg10 mi
4:58 AM30 °FPassing clouds.9 mph63%29.79 "Hg10 mi
3:58 AM28 °FPassing clouds.10 mph68%29.80 "Hg10 mi
2:58 AM28 °FPassing clouds.10 mph67%29.81 "Hg10 mi
1:58 AM29 °FPassing clouds.8 mph66%29.84 "Hg10 mi
12:58 AM31 °FPassing clouds.6 mph68%29.86 "Hg10 mi
11:58 PM
Dec 20
29 °FPassing clouds.7 mph68%29.92 "Hg10 mi
10:58 PM36 °FPassing clouds.5 mph55%29.89 "Hg10 mi
Weather by CustomWeather, © 2014

See weather overviewHow to use our weather pages